Showing default

JCSAT 17, 45245

Orbit data source: Space-Track

JCSAT 17, 45245 is a payload satellite owned by Sky Perfect JSAT (JP) in GEO that was launched on Tue, 18 Feb 2020 UTC via an ARIANE 5ECA+ launch vehicle from the French Guiana (FRGUI). Payload-class satellites include a variety of spacecraft equipped with specific instruments for various scientific and technological missions. These include communications satellites like Starlink; space stations such as the ISS; scientific satellites like the Hubble; Earth observation satellites from companies like Planet Labs, Umbra, and HawkEye 360; GPS; miniature CubeSats for education and research; and military/defense satellites.

Not visible in the next 10 days
Identifier
45245, 2020-013A
Orbit
GEO
Country
Flag of JPJP / JPN
Related business
Manufacturer
LMCSS
Mission
Operational Commercial Communications
Bus & Motor
A2100, LEROS-1C
Mass
5,857 kg wet, ~3,000 kg dry
Launch date (UTC)
2020-02-18 (7 years ago)
Launch vehicle
ARIANE 5ECA+
Launch site
French Guiana (FRGUI)
Object type
Payload
Rocket body
Debris
Shape & HBR
Box + 2 Pan + 1 Dish, 3.1 m
Radar Cross Section
30.713 m², Large (>1 m²)

Expand to show TLE details & history
Last TLE update: 6 hours ago

TLE from 6 hours ago
0 JCSAT 17
1 45245U 20013A   26258.52870772 -.00000321  00000-0  00000+0 0  9993
2 45245   5.3976 357.7034 0004290 177.9476 145.1518  1.00271118 24133
Epoch: 2026-09-15T12:41Z
TLE epoch observation values (Epoch: 2026-09-15T12:41:20.347Z)
Latitude
-3.23032°
Longitude
136.12489°
Altitude
35,801.684 km
Speed
3.074 km/s
True Right ascension
21h 23m 48s
True Declination
-3° 13' 37"
Sunlit
Object was in daylight at epoch
Visualization orbit readout
Latitude
Unknown
Longitude
Unknown
Altitude
Unknown
Speed
Unknown
Apparent Right ascension
Unknown
Apparent Declination
Unknown
Sunlit
N/A
Visualization observer readout
Local Sidereal Time
11:21:16
Azimuth
Unknown
Elevation
Unknown
Doppler factor
Unknown
Orbital elements
Apogee altitude
35,805.928 km
Perigee altitude
35,769.749 km
Semi-major axis
42,165.975 km
Eccentricity
0.00043
Inclination
5.3976°
RAAN
357.7034°
Arg. of periapsis
177.9476°
True anomaly
145.17988°
Mean anomaly
145.1518°
Eccentric anomaly
145.16584°
Mean motion
0.25067 °/min
Orbital period
1,436.16 mins
BSTAR
0
Loading maneuver chart data...
Computing Atmospheric mass density...
Loading historical data...
Loading historical data...
Loading historical data...
Loading historical data...
Loading historical data...
Loading historical data...
Loading historical data...
Other satellites on launch #13 in the year 2020 (2020-02-18 UTC)

Documentation

Showing up to 5 results
|